This demonstration page uses our WeatherBlox Daily Observations layout. Learn more.

Left ArrowRight Arrow

Hourly Observations for June 10, 2018

Temp ( °F °C ) Dew Point ( °F °C ) Humidity (%) Winds ( mph kmh ) Pressure ( in mb ) Visibility ( mi km ) Precip ( " mm )
12:53 am 00:53 Mostly Cloudy 61 16.1 59 15 93 93 W 6 9 29.48 998 10 16 0.00 0.00
1:53 am 01:53 Clear 59 15 58 14.4 96 96 SW 8 13 29.45 997 10 16 0.00 0.00
2:53 am 02:53 Mostly Cloudy 59 15 58 14.4 96 96 SW 15 24 29.48 998 10 16 0.00 0.00
3:53 am 03:53 Cloudy 60 15.6 51 10.6 72 72 WSW 23 37 29.52 1000 10 16 0.00 0.00
4:53 am 04:53 Cloudy 56 13.3 46 7.8 70 70 WSW 16 26 29.59 1002 10 16 0.00 0.00
5:53 am 05:53 Cloudy 55 12.8 45 7.2 69 69 W 18 30 29.60 1002 10 16 0.00 0.00
6:53 am 06:53 Cloudy 54 12.2 45 7.2 72 72 W 16 26 29.62 1003 10 16 0.00 0.00
7:53 am 07:53 Cloudy 54 12.2 46 7.8 75 75 WSW 13 20 29.63 1004 10 16 0.00 0.00
8:53 am 08:53 Sunny 57 13.9 46 7.8 67 67 SW 16 26 29.63 1003 10 16 0.00 0.00
9:53 am 09:53 Mostly Sunny 59 15 46 7.8 62 62 WSW 26 43 29.64 1004 10 16 0.00 0.00
10:53 am 10:53 Mostly Sunny 61 16.1 45 7.2 56 56 WSW 23 37 29.64 1004 10 16 0.00 0.00
11:53 am 11:53 Mostly Sunny 63 17.2 43 6.1 48 48 WSW 24 39 29.65 1004 10 16 0.00 0.00
12:53 pm 12:53 Mostly Sunny 67 19.4 38 3.3 35 35 WSW 29 46 29.64 1004 10 16 0.00 0.00
1:53 pm 13:53 Sunny 65 18.3 33 0.6 31 31 WSW 23 37 29.66 1005 10 16 0.00 0.00
2:53 pm 14:53 Sunny 68 20 33 0.6 27 27 WSW 25 41 29.67 1005 10 16 0.00 0.00
3:53 pm 15:53 Mostly Sunny 70 21.1 29 -1.7 22 22 WSW 30 48 29.67 1005 10 16 0.00 0.00
4:53 pm 16:53 Sunny 68 20 26 -3.3 21 21 WSW 25 41 29.70 1006 10 16 0.00 0.00
5:53 pm 17:53 Sunny 65 18.3 24 -4.4 21 21 WSW 29 46 29.73 1007 10 16 0.00 0.00
6:53 pm 18:53 Sunny 64 17.8 23 -5 21 21 WSW 28 44 29.74 1007 10 16 0.00 0.00
7:53 pm 19:53 Sunny 62 16.7 21 -6.1 21 21 WSW 28 44 29.75 1008 10 16 0.00 0.00
8:53 pm 20:53 Sunny 58 14.4 27 -2.8 31 31 WSW 20 31 29.75 1008 10 16 0.00 0.00
9:53 pm 21:53 Clear 53 11.7 29 -1.7 40 40 SW 17 28 29.78 1008 10 16 0.00 0.00
10:53 pm 22:53 Clear 50 10 30 -1.1 46 46 SW 10 17 29.79 1009 10 16 0.00 0.00
11:53 pm 23:53 Clear 47 8.3 29 -1.7 50 50 SSW 12 19 29.81 1009 10 16 0.00 0.00

Powered by AerisWeather